FW6490 Weather Reports


Display with metric or nautical units.
time (UTC)temp
F
wind
direction
speed
MPH
gust
MPH
rain 1hr
in
rain 24hr
in
rain mn
in
humidity
%
barometer
mb
20260906045839 60 322 0.0 2.0 0.00 0.00 0.00 83 1009.0
20260906045338 60 322 0.0 2.0 0.00 0.00 0.00 82 1009.0
20260906044831 61 322 0.0 2.0 0.00 0.00 0.00 82 1009.0
20260906044330 61 322 1.0 3.0 0.00 0.00 0.00 83 1009.0
20260906043828 61 322 0.0 3.0 0.00 0.00 0.00 84 1009.0
20260906043325 62 322 0.0 1.0 0.00 0.00 0.00 83 1009.0
20260906042822 62 322 0.0 0.0 0.00 0.00 0.00 84 1008.9
20260906042319 62 322 0.0 0.0 0.00 0.00 0.00 84 1008.9
20260906041819 62 322 0.0 1.0 0.00 0.00 0.00 84 1008.9
20260906041317 62 322 1.0 4.0 0.00 0.00 0.00 84 1008.6
20260906040815 62 322 1.0 4.0 0.00 0.00 0.00 84 1008.6
20260906040310 62 322 1.0 4.0 0.00 0.00 0.00 84 1008.6
20260906035809 62 322 1.0 4.0 0.00 0.00 0.00 84 1008.4
20260906034805 62 323 2.0 4.0 0.00 0.00 0.00 85 1008.4
20260906034300 62 323 1.0 4.0 0.00 0.00 0.00 85 1008.2
20260906033257 63 324 0.0 3.0 0.00 0.00 0.00 84 1008.2
20260906032259 64 325 2.0 4.0 0.00 0.00 0.00 83 1008.0
20260906031754 64 325 2.0 4.0 0.00 0.00 0.00 83 1008.0
20260906031251 64 325 2.0 4.0 0.00 0.00 0.00 82 1008.0
20260906030750 65 325 2.0 4.0 0.00 0.00 0.00 82 1008.0
20260906030249 65 324 2.0 4.0 0.00 0.00 0.00 81 1008.0
20260906025748 65 320 2.0 4.0 0.00 0.00 0.00 81 1007.9
20260906025245 65 320 2.0 4.0 0.00 0.00 0.00 80 1007.9
20260906024745 65 320 2.0 4.0 0.00 0.00 0.00 80 1007.9
20260906024244 66 320 1.0 4.0 0.00 0.00 0.00 79 1007.8
20260906022735 67 320 3.0 6.0 0.00 0.00 0.00 79 1007.8
20260906021731 68 295 3.0 6.0 0.00 0.00 0.00 75 1007.8
20260906021228 69 302 3.0 7.0 0.00 0.00 0.00 74 1007.8
20260906020726 69 310 3.0 7.0 0.00 0.00 0.00 72 1007.8
20260906015723 71 331 2.0 4.0 0.00 0.00 0.00 69 1007.7
20260906015217 71 331 1.0 4.0 0.00 0.00 0.00 66 1007.8
20260906014715 72 331 1.0 4.0 0.00 0.00 0.00 65 1007.8
20260906014219 72 331 2.0 5.0 0.00 0.00 0.00 63 1007.6
20260906013719 73 331 2.0 5.0 0.00 0.00 0.00 62 1007.6
20260906013211 74 333 2.0 5.0 0.00 0.00 0.00 60 1007.6
20260906012707 74 337 2.0 4.0 0.00 0.00 0.00 59 1007.7
20260906012208 75 337 2.0 4.0 0.00 0.00 0.00 58 1007.7
20260906011204 77 338 2.0 5.0 0.00 0.00 0.00 57 1007.8
20260906010704 77 338 2.0 5.0 0.00 0.00 0.00 56 1007.8
20260906005703 78 331 2.0 5.0 0.00 0.00 0.00 57 1007.7
20260906005201 77 317 2.0 5.0 0.00 0.00 0.00 58 1007.7
20260906004656 77 305 3.0 8.0 0.00 0.00 0.00 60 1007.7
20260906004155 77 348 4.0 8.0 0.00 0.00 0.00 60 1007.7
20260906003654 77 330 4.0 8.0 0.00 0.00 0.00 59 1007.7
20260906003150 78 319 3.0 7.0 0.00 0.00 0.00 58 1007.7
20260906002146 78 338 3.0 7.0 0.00 0.00 0.00 58 1007.7
20260906001649 78 326 3.0 7.0 0.00 0.00 0.00 58 1007.7
20260906001145 78 341 3.0 7.0 0.00 0.00 0.00 58 1007.7
20260906000644 78 334 4.0 7.0 0.00 0.00 0.00 58 1007.7
20260906000142 79 323 3.0 7.0 0.00 0.00 0.00 57 1007.7
20260905235142 79 342 4.0 8.0 0.00 0.00 0.00 56 1007.7
20260905234641 79 328 3.0 8.0 0.00 0.00 0.00 56 1007.7
20260905234142 79 320 4.0 7.0 0.00 0.00 0.00 55 1007.6
20260905233640 79 303 4.0 8.0 0.00 0.00 0.00 55 1007.6
20260905233140 79 313 5.0 9.0 0.00 0.00 0.00 54 1007.6
20260905232637 79 315 4.0 9.0 0.00 0.00 0.00 54 1007.6
20260905232137 80 311 3.0 6.0 0.00 0.00 0.00 53 1007.7
20260905231634 80 323 4.0 9.0 0.00 0.00 0.00 54 1007.7
20260905231133 80 13 4.0 9.0 0.00 0.00 0.00 54 1007.9
20260905230631 81 315 4.0 8.0 0.00 0.00 0.00 54 1007.9
20260905230130 81 339 3.0 6.0 0.00 0.00 0.00 55 1007.9
20260905225627 81 329 3.0 7.0 0.00 0.00 0.00 55 1008.1
20260905225129 81 331 3.0 7.0 0.00 0.00 0.00 55 1008.1
20260905224625 81 64 3.0 6.0 0.00 0.00 0.00 55 1008.1
20260905224125 81 319 4.0 9.0 0.00 0.00 0.00 56 1008.1
20260905223624 80 273 4.0 9.0 0.00 0.00 0.00 56 1008.1
20260905222125 81 323 3.0 6.0 0.00 0.00 0.00 53 1008.2
20260905221624 81 323 3.0 6.0 0.00 0.00 0.00 54 1008.2
20260905221124 81 323 3.0 6.0 0.00 0.00 0.00 54 1008.3
20260905220621 82 329 3.0 6.0 0.00 0.00 0.00 52 1008.3
20260905220120 83 331 3.0 6.0 0.00 0.00 0.00 52 1008.3
20260905215620 83 333 2.0 6.0 0.00 0.00 0.00 52 1008.3
20260905215122 82 32 2.0 6.0 0.00 0.00 0.00 52 1008.3
20260905214117 81 317 3.0 5.0 0.00 0.00 0.00 53 1008.5
20260905213617 81 321 3.0 7.0 0.00 0.00 0.00 53 1008.5
20260905213116 82 15 3.0 7.0 0.00 0.00 0.00 51 1008.5
20260905212111 82 322 3.0 7.0 0.00 0.00 0.00 52 1008.6
20260905211609 82 307 3.0 7.0 0.00 0.00 0.00 51 1008.6
20260905211107 83 355 3.0 7.0 0.00 0.00 0.00 51 1008.6
20260905210607 83 338 3.0 6.0 0.00 0.00 0.00 50 1008.6
20260905210106 83 341 3.0 6.0 0.00 0.00 0.00 49 1008.6
20260905205607 83 84 2.0 6.0 0.00 0.00 0.00 49 1008.7
20260905205105 83 335 2.0 6.0 0.00 0.00 0.00 50 1008.7
20260905204605 83 62 3.0 8.0 0.00 0.00 0.00 50 1008.7
20260905204104 83 42 3.0 8.0 0.00 0.00 0.00 50 1008.9
20260905203604 83 58 3.0 8.0 0.00 0.00 0.00 46 1008.9
20260905202607 83 59 3.0 7.0 0.00 0.00 0.00 49 1008.9
20260905201058 83 61 5.0 9.0 0.00 0.00 0.00 49 1008.9
20260905200558 82 49 4.0 10.0 0.00 0.00 0.00 51 1008.9
20260905200057 81 40 2.0 10.0 0.00 0.00 0.00 53 1008.9
20260905195555 81 341 3.0 10.0 0.00 0.00 0.00 53 1009.2
20260905195056 80 125 4.0 10.0 0.00 0.00 0.00 54 1009.2
20260905194555 80 134 4.0 10.0 0.00 0.00 0.00 54 1009.2
20260905194056 80 115 3.0 10.0 0.00 0.00 0.00 53 1009.2
20260905193555 80 134 3.0 8.0 0.00 0.00 0.00 54 1009.2
20260905193058 79 126 3.0 8.0 0.00 0.00 0.00 54 1009.2
20260905191044 79 66 4.0 10.0 0.00 0.00 0.00 55 1009.2
20260905190545 79 129 3.0 10.0 0.00 0.00 0.00 55 1009.2
20260905190044 79 153 2.0 5.0 0.00 0.00 0.00 56 1009.2
20260905185541 79 108 2.0 7.0 0.00 0.00 0.00 56 1009.2
20260905185041 78 76 2.0 7.0 0.00 0.00 0.00 58 1009.2
20260905184541 78 101 2.0 8.0 0.00 0.00 0.00 59 1009.2
20260905184038 77 133 3.0 8.0 0.00 0.00 0.00 60 1009.2
20260905183037 77 128 3.0 8.0 0.00 0.00 0.00 62 1009.2
20260905182536 77 67 3.0 7.0 0.00 0.00 0.00 62 1009.2
20260905182034 77 127 3.0 7.0 0.00 0.00 0.00 61 1009.2
20260905181534 78 88 3.0 5.0 0.00 0.00 0.00 61 1009.2
20260905181030 77 61 3.0 8.0 0.00 0.00 0.00 62 1009.2
20260905180532 76 36 3.0 8.0 0.00 0.00 0.00 62 1009.2
20260905180029 77 82 3.0 6.0 0.00 0.00 0.00 62 1009.2
20260905175528 76 48 2.0 6.0 0.00 0.00 0.00 64 1009.2
20260905175026 75 112 3.0 8.0 0.00 0.00 0.00 65 1009.2
20260905174528 75 119 3.0 8.0 0.00 0.00 0.00 65 1009.2
20260905174027 75 80 3.0 7.0 0.00 0.00 0.00 65 1009.1
20260905173520 75 70 3.0 7.0 0.00 0.00 0.00 65 1009.1
20260905173018 75 61 3.0 5.0 0.00 0.00 0.00 66 1009.1
20260905172514 74 65 2.0 5.0 0.00 0.00 0.00 67 1009.1
20260905172013 74 69 2.0 5.0 0.00 0.00 0.00 68 1009.1
20260905171009 73 56 2.0 5.0 0.00 0.00 0.00 69 1009.1
20260905170509 72 80 2.0 5.0 0.00 0.00 0.00 70 1009.1
20260905170012 71 87 2.0 5.0 0.00 0.00 0.00 70 1009.0
20260905165510 71 87 2.0 5.0 0.00 0.00 0.00 72 1009.0
20260905165005 71 52 2.0 5.0 0.00 0.00 0.00 72 1009.0
20260905164505 71 49 3.0 5.0 0.00 0.00 0.00 73 1009.0
20260905164006 70 46 2.0 5.0 0.00 0.00 0.00 75 1009.0
20260905163002 68 63 3.0 6.0 0.00 0.00 0.00 78 1009.0
20260905162500 67 59 3.0 6.0 0.00 0.00 0.00 80 1009.0
20260905161955 67 63 3.0 5.0 0.00 0.00 0.00 80 1009.0
20260905161458 67 69 2.0 5.0 0.00 0.00 0.00 80 1009.0
20260905160956 66 51 1.0 5.0 0.00 0.00 0.00 82 1009.0
20260905160454 66 121 1.0 5.0 0.00 0.00 0.00 83 1009.0
20260905155451 64 65 2.0 7.0 0.00 0.00 0.00 85 1008.9
20260905154948 64 71 2.0 7.0 0.00 0.00 0.00 86 1008.9
20260905154449 64 88 2.0 7.0 0.00 0.00 0.00 86 1008.9
20260905153945 63 78 2.0 7.0 0.00 0.00 0.00 87 1008.6
20260905153445 63 72 2.0 7.0 0.00 0.00 0.00 88 1008.5
20260905152940 63 57 1.0 7.0 0.00 0.00 0.00 88 1008.5
20260905152441 62 57 0.0 5.0 0.00 0.00 0.00 90 1008.6
20260905151942 62 92 0.0 5.0 0.00 0.00 0.00 90 1008.6
20260905151439 61 285 0.0 0.0 0.00 0.00 0.00 91 1008.6
20260905150430 60 285 0.0 0.0 0.00 0.00 0.00 93 1008.5
20260905145424 59 285 0.0 0.0 0.00 0.00 0.00 94 1008.4
20260905144924 58 285 0.0 0.0 0.00 0.00 0.00 95 1008.4
20260905144426 57 285 0.0 0.0 0.00 0.00 0.00 95 1008.4
20260905143417 56 284 0.0 0.0 0.00 0.00 0.00 95 1008.2
20260905142916 55 285 0.0 0.0 0.00 0.00 0.00 95 1008.1
20260905142416 54 284 0.0 0.0 0.00 0.00 0.00 95 1007.8
20260905141914 54 284 0.0 0.0 0.00 0.00 0.00 95 1007.8
20260905141415 53 284 0.0 0.0 0.00 0.00 0.00 94 1007.8
20260905140914 53 285 0.0 0.0 0.00 0.00 0.00 94 1007.8
20260905140412 53 284 0.0 0.0 0.00 0.00 0.00 94 1007.8
20260905135909 53 284 0.0 0.0 0.00 0.00 0.00 93 1007.8
20260905135405 53 284 0.0 0.0 0.00 0.00 0.00 94 1007.8
20260905134907 53 284 0.0 0.0 0.00 0.00 0.00 93 1007.8
20260905133859 53 284 0.0 0.0 0.00 0.00 0.00 93 1007.7
20260905133358 53 284 0.0 0.0 0.00 0.00 0.00 93 1007.7
20260905132856 53 284 0.0 0.0 0.00 0.00 0.00 93 1007.7
20260905132352 53 284 0.0 0.0 0.00 0.00 0.00 93 1007.7
20260905131847 53 284 0.0 0.0 0.00 0.00 0.00 93 1007.7
20260905131349 53 284 0.0 0.0 0.00 0.00 0.00 93 1007.7
20260905130847 53 284 0.0 0.0 0.00 0.00 0.00 93 1007.7
20260905130344 54 284 0.0 0.0 0.00 0.00 0.00 93 1007.7
20260905125846 53 284 0.0 0.0 0.00 0.00 0.00 93 1007.7
20260905125340 53 284 0.0 0.0 0.00 0.00 0.00 93 1007.7
20260905124841 54 284 0.0 0.0 0.00 0.00 0.00 93 1007.7
20260905124337 54 284 0.0 0.0 0.00 0.00 0.00 93 1007.7
20260905123337 54 284 0.0 0.0 0.00 0.00 0.00 93 1007.7
20260905122834 54 284 0.0 0.0 0.00 0.00 0.00 93 1007.7
20260905121827 54 284 0.0 0.0 0.00 0.00 0.00 92 1007.7
20260905121325 54 284 0.0 0.0 0.00 0.00 0.00 92 1007.7
20260905120825 54 284 0.0 0.0 0.00 0.00 0.00 92 1007.7
20260905120324 54 284 0.0 0.0 0.00 0.00 0.00 92 1007.7
20260905115826 54 284 0.0 0.0 0.00 0.00 0.00 92 1007.7
20260905115324 54 284 0.0 0.0 0.00 0.00 0.00 92 1007.7
20260905114823 54 284 0.0 0.0 0.00 0.00 0.00 92 1007.7
20260905114321 54 284 0.0 0.0 0.00 0.00 0.00 92 1007.8
20260905113818 54 284 0.0 0.0 0.00 0.00 0.00 92 1007.8
20260905113313 54 284 0.0 0.0 0.00 0.00 0.00 92 1007.8
20260905112812 54 284 0.0 0.0 0.00 0.00 0.00 91 1007.8
20260905112311 54 284 0.0 0.0 0.00 0.00 0.00 91 1007.8
20260905111807 54 284 0.0 0.0 0.00 0.00 0.00 91 1007.8
20260905111304 55 284 0.0 0.0 0.00 0.00 0.00 91 1007.9
20260905110801 55 284 0.0 0.0 0.00 0.00 0.00 91 1007.9
20260905110302 55 284 0.0 0.0 0.00 0.00 0.00 91 1007.9
20260905105756 55 284 0.0 0.0 0.00 0.00 0.00 91 1007.9
20260905105256 55 284 0.0 0.0 0.00 0.00 0.00 91 1007.9
20260905104253 55 284 0.0 0.0 0.00 0.00 0.00 91 1008.1
20260905103751 55 284 0.0 0.0 0.00 0.00 0.00 90 1008.2
20260905103248 55 284 0.0 0.0 0.00 0.00 0.00 90 1008.2
20260905102748 55 284 0.0 0.0 0.00 0.00 0.00 90 1008.3
20260905101747 56 284 0.0 0.0 0.00 0.00 0.00 90 1008.3
20260905101242 56 284 0.0 0.0 0.00 0.00 0.00 90 1008.3
20260905100746 56 284 0.0 0.0 0.00 0.00 0.00 90 1008.3
20260905100242 56 284 0.0 0.0 0.00 0.00 0.00 89 1008.3
20260905095740 56 284 0.0 0.0 0.00 0.00 0.00 89 1008.4
20260905095233 56 284 0.0 0.0 0.00 0.00 0.00 89 1008.4
20260905094734 56 284 0.0 0.0 0.00 0.00 0.00 89 1008.4
20260905094232 56 284 0.0 0.0 0.00 0.00 0.00 89 1008.4
20260905093730 56 284 0.0 0.0 0.00 0.00 0.00 89 1008.4
20260905092226 57 284 0.0 0.0 0.00 0.00 0.00 89 1008.5
20260905091725 57 284 0.0 0.0 0.00 0.00 0.00 88 1008.5
20260905091224 57 284 0.0 0.0 0.00 0.00 0.00 89 1008.5
20260905090216 57 284 0.0 0.0 0.00 0.00 0.00 89 1008.5
20260905085708 57 284 0.0 0.0 0.00 0.00 0.00 89 1008.6
20260905085213 57 284 0.0 0.0 0.00 0.00 0.00 89 1008.6
20260905084706 57 284 0.0 0.0 0.00 0.00 0.00 89 1008.6
20260905084201 57 284 0.0 0.0 0.00 0.00 0.00 89 1008.9
20260905083700 57 284 0.0 0.0 0.00 0.00 0.00 88 1008.9
20260905082156 58 284 0.0 0.0 0.00 0.00 0.00 88 1008.9
20260905081648 58 284 0.0 0.0 0.00 0.00 0.00 88 1008.9
20260905081152 58 284 0.0 0.0 0.00 0.00 0.00 88 1009.0
20260905080652 58 284 0.0 0.0 0.00 0.00 0.00 88 1009.0
20260905080147 58 284 0.0 0.0 0.00 0.00 0.00 88 1009.0
20260905075647 58 284 0.0 0.0 0.00 0.00 0.00 89 1009.0
20260905075145 58 284 0.0 0.0 0.00 0.00 0.00 89 1009.0
20260905074643 58 284 0.0 0.0 0.00 0.00 0.00 89 1009.0
20260905074141 58 284 0.0 0.0 0.00 0.00 0.00 89 1009.0
20260905073640 58 284 0.0 0.0 0.00 0.00 0.00 89 1009.0
20260905072136 58 285 0.0 0.0 0.00 0.00 0.00 88 1009.0
20260905071637 58 284 0.0 0.0 0.00 0.00 0.00 88 1009.0
20260905071135 58 284 0.0 0.0 0.00 0.00 0.00 88 1008.9
20260905070636 58 284 0.0 0.0 0.00 0.00 0.00 88 1008.9
20260905070130 58 284 0.0 0.0 0.00 0.00 0.00 87 1008.9
20260905065628 58 284 0.0 0.0 0.00 0.00 0.00 87 1008.7
20260905064622 58 284 0.0 0.0 0.00 0.00 0.00 87 1008.7
20260905064118 58 285 0.0 0.0 0.00 0.00 0.00 86 1008.9
20260905063617 58 284 0.0 0.0 0.00 0.00 0.00 86 1008.9
20260905063114 58 284 0.0 0.0 0.00 0.00 0.00 87 1008.9
20260905062613 58 285 0.0 0.0 0.00 0.00 0.00 87 1008.9
20260905062111 59 284 0.0 0.0 0.00 0.00 0.00 87 1008.9
20260905061606 59 284 0.0 0.0 0.00 0.00 0.00 87 1008.9
20260905061107 59 284 0.0 0.0 0.00 0.00 0.00 87 1009.0
20260905060105 59 284 0.0 0.0 0.00 0.00 0.00 87 1009.0
20260905055606 59 284 0.0 0.0 0.00 0.00 0.00 87 1009.0
20260905054559 59 285 0.0 0.0 0.00 0.00 0.00 88 1009.0
20260905054059 59 284 0.0 0.0 0.00 0.00 0.00 88 1009.0
20260905053559 59 284 0.0 0.0 0.00 0.00 0.00 88 1009.0
20260905053053 59 284 0.0 0.0 0.00 0.00 0.00 89 1009.0
20260905052546 60 284 0.0 0.0 0.00 0.00 0.00 89 1009.0
20260905052040 60 284 0.0 0.0 0.00 0.00 0.00 89 1009.0
20260905051039 60 284 0.0 0.0 0.00 0.00 0.00 89 1009.0
20260905050540 60 284 0.0 0.0 0.00 0.00 0.00 88 1009.0